Home > Weather > Nuremberg > Past weeks

Flag for Germany Past Weather in Nuremberg, Bavaria, Germany — Yesterday and Last 2 Weeks

Now
73 °F

Partly sunny.


Feels Like: 75 °F
Forecast: 57 / 77 °F
Wind: 6 mph from Northwest

Location: Nuernberg

Current Time: Jul 27, 2016 at 3:39:08 PM

Latest Report: Jul 27, 2016 at 3:20 PM


Visibility: N/A

Pressure: 30.01 "Hg

Humidity: 74%

Dew Point: 64 °F

Location of NurembergLocation

Past Weather in Nuremberg — Graph

°F

Nuremberg Temperature Yesterday

Maximum temperature yesterday: 81 °F (at 2:20 PM)
Minimum temperature yesterday: 64 °F (at 1:20 AM)
Average temperature yesterday: 69 °F

High & Low Weather Summary for the Past Weeks

 TemperatureHumidityPressure
High90 °F (Jul 20, 6:50 PM)100% (Jul 13, 3:50 PM)30.33 "Hg (Jul 13, 3:50 PM)
Low46 °F (Jul 16, 3:20 AM)27% (Jul 20, 3:50 PM)29.89 "Hg (Jul 13, 1:50 PM)
Average67 °F74%30.09 "Hg
* Reported Jul 12 1:20 PM — Jul 27 1:50 PM, Nuremberg, Weather by CustomWeather, © 2016

Note: Actual official high and low records may vary slightly from our data, if they occured in-between our weather recording intervals... More about our weather records

Advertising

Nuremberg Weather History for the Previous 24 Hours

Scroll right to see more
 ConditionsComfort  
Time TempWeatherWind HumidityBarometerVisibility
1:50 PM
Wed, Jul 27
70 °FSprinkles. Partly sunny.2 mph94%30.04 "Hg4 mi
1:20 PM70 °FThunderstorms. Partly sunny.2 mph88%30.04 "Hg4 mi
12:50 PM70 °FThunderstorms. Partly sunny.3 mph88%30.04 "HgN/A
12:20 PM72 °FThunderstorms. Scattered clouds.5 mph83%30.04 "HgN/A
11:50 AM72 °FBroken clouds.5 mph78%30.07 "HgN/A
11:20 AM72 °FPartly sunny.3 mph78%30.07 "HgN/A
10:50 AM72 °FPartly sunny.3 mph78%30.07 "HgN/A
10:20 AM72 °FSunny.2 mph78%30.07 "Hg10 mi
9:50 AM70 °FSunny.2 mph83%30.07 "Hg10 mi
9:20 AM68 °FPassing clouds.3 mph83%30.07 "HgN/A
8:50 AM66 °FPassing clouds.3 mph88%30.07 "HgN/A
8:20 AM64 °FSunny.3 mph94%30.07 "Hg10 mi
7:50 AM64 °FPassing clouds.3 mph94%30.07 "HgN/A
7:20 AM63 °FSunny.3 mph94%30.07 "Hg10 mi
6:50 AM61 °FSunny.3 mph100%30.07 "Hg10 mi
6:20 AM61 °FClear.1 mph100%30.07 "Hg10 mi
5:50 AM61 °FClear.3 mph100%30.07 "Hg10 mi
5:20 AM61 °FClear.2 mph100%30.07 "Hg10 mi
4:50 AM61 °FClear.3 mph100%30.07 "Hg10 mi
4:20 AM61 °FClear.5 mph100%30.07 "Hg10 mi
3:50 AM61 °FFog.2 mph100%30.07 "HgN/A
3:20 AM61 °FFog.No wind100%30.07 "HgN/A
2:50 AM63 °FFog.2 mph94%30.09 "HgN/A
2:20 AM61 °FFog.No wind100%30.09 "HgN/A
1:50 AM61 °FFog.2 mph100%30.09 "HgN/A
1:20 AM63 °FFog.3 mph100%30.09 "HgN/A
12:50 AM63 °FFog.No wind100%30.09 "HgN/A
12:20 AM64 °FFog.2 mph94%30.09 "HgN/A
11:50 PM
Tue, Jul 26
64 °FFog.5 mph94%30.09 "HgN/A
11:20 PM64 °FFog.5 mph94%30.09 "HgN/A
10:50 PM64 °FFog.3 mph100%30.09 "HgN/A
10:20 PM66 °FFog.3 mph94%30.12 "HgN/A
9:50 PM66 °FFog.2 mph100%30.12 "HgN/A
9:20 PM66 °FFog.2 mph100%30.09 "HgN/A
8:50 PM68 °FFog.5 mph94%30.09 "HgN/A
8:20 PM70 °FFog.2 mph88%30.09 "HgN/A
7:50 PM72 °FSunny.2 mph83%30.09 "Hg10 mi
7:20 PM72 °FSunny.9 mph83%30.07 "Hg10 mi
6:50 PM72 °FPassing clouds.6 mph83%30.09 "HgN/A
6:20 PM70 °FPartly sunny.6 mph88%30.09 "HgN/A
5:50 PM70 °FPartly sunny.3 mph88%30.09 "HgN/A
5:20 PM68 °FBroken clouds.3 mph94%30.09 "HgN/A
4:50 PM68 °FThundershowers. Broken clouds.6 mph88%30.09 "HgN/A
4:20 PM64 °FMild.6 mph78%30.09 "HgN/A
3:50 PM68 °FThunderstorms. Broken clouds.15 mph83%30.09 "HgN/A
3:20 PM77 °FThunderstorms. Broken clouds.12 mph61%30.07 "HgN/A
Weather by CustomWeather, © 2016

See weather overviewHow to use our weather pages